{"data":{"norad_id":51771,"intl_designator":"2022-017D","name":"STARLINK-3614","alt_names":[],"object_type":"PAYLOAD","status":"ACTIVE","operator":null,"country":"US","launch_date":"2022-02-25","launch_site_code":"AFWTR","launch_vehicle":null,"mission":null,"orbit_class":"UNKNOWN","rcs_meters":null,"size_class":null,"mass_kg":null,"dimensions":null,"purposes":["comms"],"wikipedia_slug":null,"has_3d_model":false,"image_url":null,"decayed_at":null,"tle_current":{"epoch":"2026-05-24T23:37:49.884960Z","epoch_age_seconds":70364,"freshness":"FRESH","line1":"1 51771U 22017D   26144.98460515  .00000058  00000+0  21698-4 0  9990","line2":"2 51771  53.2143 356.6088 0001034 109.2380 250.8724 15.08837880234126","mean_motion":15.0883788,"eccentricity":0.0001034,"inclination_deg":53.2143,"raan_deg":356.6088,"arg_perigee_deg":109.238,"mean_anomaly_deg":250.8724,"bstar":2.1698e-5,"rev_number":23412,"period_min":95.437688772766,"perigee_km":539.03455946132,"apogee_km":540.46517846582,"semimajor_km":6917.8868689636,"source":"CELESTRAK","updated_at":"2026-05-25T13:38:16.950066Z"}}}